Starlink 2646

operational
NORAD ID: 48642 Int'l Des: 2021-044 Owner: SPXS Country: US Constellation: starlink
LEOCIRCULARSTARLINK_TYPE

Starlink 2646について

説明を読み込み中...

リアルタイム位置

3D地球を読み込み中...

次回通過

高度履歴

Altitude vs Time

uPlot chart will show altitude changes over time

軌道要素

1 48642U 21044E 25258.50903275 .00000014 00000-0 19825-4 0 9992
2 48642 53.0531 188.0436 0001267 86.5440 273.5694 15.06397264237300
Epoch: Sep 15, 2025 • Age: 13 hours

現在のステータス

高度 551.9 km
速度 7.59 km/s
衛星直下点 48.55°N, 69.24°W
打ち上げ日 May 26, 2021
運用期間 4.3 years
タイプ internet

技術仕様

分類 Payload
質量 260.00 kg
乾燥質量 248.00 kg
総質量 260.00 kg
長さ 0.20 m
直径 2.80 m
スパン 9.00 m
形状 Box + pan
製造者 SPXS
バスタイプ Starlink
フェーズステータス In Orbit
所有者/国 SPXS/US

大規模コンステレーション

Loading constellations...